Dewpoint
57 51 48 45 41 39 39 41 42 43 47 48 48 47 47 47 47 44 57 59 55 57 62 62 66 65 65 65 65 67 67 67 66 66 67 68 68 68 67 68 68 68 67 67 67 66 66 66 66
51 47 46 42 47 34 41 44 43 48 49 49 48 47 46 47 48 53 57 59 56 61 63 60 62 63 64 64 65 65 66 66 67 67 68 68 68 68 67 68 67 67 67 67 67 67 66 66 66
54 46 43 41 42 36 39 45 49 50 51 48 48 49 48 48 49 54 58 60 59 60 60 59 62 61 62 63 64 64 65 68 68 68 68 67 66 66 66 65 65 65 66 66 67 67 67 67 67
45 44 42 40 41 44 44 48 51 52 51 50 48 48 50 50 51 56 59 60 59 60 59 59 61 60 59 61 62 63 65 66 65 64 64 64 63 63 63 63 63 63 63 65 66 66 66 66 66
44 41 36 39 43 46 47 50 51 50 50 49 48 47 48 50 55 59 57 56 57 60 60 57 59 58 59 60 61 61 63 63 62 61 61 60 60 60 60 60 60 61 61 61 62 62 62 62 62
41 39 33 35 44 46 48 50 50 49 49 49 48 47 46 52 55 54 54 56 58 61 61 56 56 57 58 58 59 59 60 60 59 58 57 56 55 55 57 57 58 58 59 58 58 57 58 58 59
40 34 32 39 44 47 48 50 48 47 47 48 47 42 46 51 53 52 53 54 55 57 58 56 54 55 57 57 56 57 57 56 55 53 53 52 53 53 54 55 55 54 54 54 54 54 53 54 55
43 36 33 38 42 43 48 48 48 47 46 48 46 40 44 51 52 51 50 50 50 52 53 53 51 50 51 52 53 54 54 54 53 50 51 50 55 55 52 52 49 49 47 48 49 51 53 55 57
44 36 31 36 39 44 48 46 48 47 46 46 46 43 45 51 51 49 48 47 48 48 49 49 48 46 46 48 50 52 51 51 53 50 50 48 34 33 34 44 49 48 45 45 47 53 55 57 59
42 35 37 39 42 45 46 45 45 44 44 43 41 44 49 50 49 48 44 44 43 43 45 46 46 44 42 38 47 48 43 43 43 40 41 36 40 35 34 43 46 52 54 48 45 53 56 52 42
41 40 43 43 44 46 46 44 45 43 42 42 40 44 48 49 48 46 41 39 36 41 42 42 45 45 41 43 40 38 38 38 40 44 42 44 40 41 37 36 36 39 47 36 41 42 43 48 47
41 43 42 44 45 45 45 44 43 43 42 42 41 46 47 48 47 43 37 31 35 39 42 41 42 45 45 35 35 36 35 37 40 43 44 45 42 44 43 40 40 41 38 41 39 39 44 46 47
41 43 45 45 45 45 44 43 42 42 43 41 42 46 47 47 45 40 31 31 36 39 41 41 42 46 43 41 38 39 39 40 44 45 48 45 44 46 43 43 41 41 41 41 41 40 39 42 44
42 43 44 44 44 44 43 42 41 42 41 42 44 46 47 46 42 38 30 33 36 39 42 43 43 45 43 42 44 43 43 43 44 46 48 49 47 47 43 43 42 42 42 42 42 42 40 38 40
43 42 42 43 43 42 42 41 40 42 41 43 44 46 46 44 40 36 31 32 34 39 42 44 45 46 45 45 43 42 41 42 44 46 50 49 48 49 47 44 44 44 44 46 44 43 42 40 38
39 39 36 41 42 41 40 36 40 41 40 41 44 45 44 42 38 34 32 31 33 38 42 43 38 46 45 45 42 41 42 43 43 44 46 49 48 49 47 44 46 46 44 43 42 42 42 42 40
37 31 32 37 40 38 39 32 39 41 40 40 41 42 41 40 38 33 32 31 32 39 41 43 44 45 46 47 44 46 48 43 44 44 45 49 48 49 48 46 47 46 42 42 42 42 43 41 40
30 29 29 32 36 35 35 31 29 38 39 39 41 40 40 39 37 34 33 33 32 40 43 44 44 46 47 46 46 43 43 43 44 44 47 50 49 50 50 46 46 43 41 41 43 43 41 38 39
25 24 24 26 32 32 30 27 25 29 36 39 38 38 37 37 37 35 34 35 34 41 41 43 43 46 45 44 42 41 41 43 44 46 49 50 51 50 50 45 43 42 39 42 42 40 41 35 35
24 23 21 26 31 31 27 25 22 21 28 32 34 34 34 35 35 35 34 36 37 39 41 41 41 44 44 42 41 40 41 42 44 47 50 50 50 49 43 43 40 41 38 40 41 40 35 33 35
21 19 20 20 26 28 24 19 16 16 20 26 28 30 31 33 34 34 34 37 38 37 41 39 40 43 44 42 40 41 42 44 44 47 46 47 46 44 42 40 40 41 38 37 39 38 37 31 31
21 19 21 19 21 14 22 7 9 9 13 21 26 27 29 31 33 33 33 36 39 39 40 39 40 41 43 43 40 42 38 38 41 45 46 45 44 41 39 39 39 40 37 39 38 35 38 35 30
22 21 20 19 18 17 13 11 6 10 10 15 22 25 28 30 32 32 33 34 36 40 40 42 40 40 42 44 44 40 42 39 45 45 47 45 43 40 36 38 39 40 37 38 38 38 37 35 33
20 19 19 20 19 18 15 12 5 8 14 13 17 22 25 28 32 33 33 34 35 44 43 43 41 39 42 44 46 44 44 42 44 45 45 43 41 39 39 36 39 38 37 36 35 36 36 36 36
21 23 26 21 21 21 14 8 9 18 21 22 24 26 28 28 33 34 32 32 34 39 43 44 42 39 41 44 45 45 45 46 47 47 44 41 39 38 37 37 37 35 36 35 35 35 35 34 34
21 23 30 24 20 15 13 6 19 19 23 23 26 28 30 32 33 34 34 34 33 37 42 44 41 40 41 44 45 46 46 46 46 46 43 40 37 36 37 36 35 35 35 35 34 32 31 34 33
22 23 25 26 26 20 16 16 25 16 20 22 25 28 30 30 32 32 34 36 36 36 41 45 42 41 41 43 45 46 48 47 44 43 43 39 38 32 32 36 35 35 35 34 34 31 32 32 33
26 26 27 30 33 20 16 15 15 15 17 19 23 28 30 31 31 31 33 35 37 37 38 46 44 41 41 45 46 47 47 45 44 43 40 37 36 34 34 34 33 33 33 33 34 32 32 31 31
25 24 25 32 28 24 18 15 20 18 19 22 24 28 32 35 36 36 34 35 35 38 39 43 44 42 43 46 47 47 45 43 41 39 37 35 35 34 33 32 31 31 31 31 32 32 31 29 30
24 25 26 36 26 26 25 19 21 24 26 25 25 31 35 37 38 39 38 38 37 38 38 41 44 43 45 46 45 45 43 40 37 36 34 35 34 34 32 31 30 29 29 30 30 29 28 28 30
Lifted_Index
0 -1 -1 -1 -1 -1 -1 -0 -0 -1 -1 -1 -1 -0 0 1 1 1 1 1 1 0 -0 0 1 1 1 1 0 -0 -1 -1 -1 -2 -2 -2 -2 -2 -2 -2 -3 -3 -3 -3 -3 -2 -2 -2 -1
-0 -1 -1 -1 -1 -1 -1 -1 -1 -1 -1 -1 -0 -0 1 1 2 1 0 0 1 0 0 1 1 2 2 1 1 1 -0 -1 -1 -2 -2 -2 -2 -2 -2 -2 -2 -2 -2 -2 -2 -2 -2 -2 -2
-0 -1 -1 -2 -2 -2 -1 -1 -1 -1 -1 -1 -0 0 1 2 2 1 0 0 0 0 1 2 2 3 3 3 2 2 1 -0 -1 -1 -1 -1 -1 -0 -0 -0 -0 -1 -1 -1 -2 -2 -2 -2 -2
-0 -1 -2 -2 -2 -2 -1 -1 -1 -1 -1 -0 0 1 2 2 2 1 0 0 0 1 2 3 3 4 4 4 4 3 2 1 0 0 0 1 1 1 1 1 1 1 1 0 -0 -1 -1 -0 -0
-1 -1 -2 -2 -1 -1 -1 -0 -0 -1 -1 -0 0 1 2 3 2 1 1 1 1 1 2 3 4 5 5 6 6 5 4 2 2 2 2 2 2 2 3 3 3 2 2 1 1 1 1 1 1
-1 -1 -1 -1 -1 -1 -0 -0 -1 -1 -1 -0 0 1 3 3 2 2 2 2 2 2 3 4 5 6 7 8 8 7 6 5 4 3 3 3 3 4 4 4 4 4 3 3 2 2 2 2 2
-0 -1 -1 -1 -1 -0 -0 -0 -1 -1 -1 -0 1 2 3 2 2 2 3 3 3 3 4 5 7 8 9 9 10 9 8 7 6 6 5 6 6 7 7 7 7 7 7 6 5 4 3 2 2
-0 -0 -1 -1 -1 -0 -0 -0 -0 -1 -1 0 1 2 3 2 2 3 4 5 5 5 6 7 8 10 10 11 11 11 11 10 10 9 10 10 11 11 12 12 12 12 12 11 10 8 6 5 4
-0 -1 -1 -1 -1 -0 -0 0 0 0 0 1 2 3 3 3 3 4 5 6 7 7 8 8 10 11 12 11 11 12 12 12 12 12 13 13 14 14 14 15 14 14 13 13 12 11 9 8 7
-1 -1 -1 -1 -1 -0 0 1 1 1 1 1 2 3 3 3 3 4 5 7 8 9 9 10 11 12 12 12 12 12 13 13 13 13 14 14 14 14 14 14 14 13 13 13 12 11 9 9 8
-1 -1 -1 -1 -0 0 0 1 1 2 1 2 2 3 3 3 3 5 7 8 9 10 10 11 12 13 13 13 13 13 13 13 13 13 13 13 13 13 13 13 13 12 12 12 11 10 9 8 8
-0 -0 -0 -0 0 0 1 1 2 2 2 2 3 3 2 3 4 6 8 10 11 11 11 11 12 13 13 14 14 14 14 13 13 13 12 12 12 12 12 12 12 11 11 11 11 10 9 9 8
-0 -0 0 0 1 1 1 1 2 2 3 3 3 3 3 3 4 7 9 11 11 11 11 12 12 12 13 13 14 14 13 13 12 12 11 11 11 11 11 11 11 11 11 10 10 10 10 9 9
0 0 0 1 1 1 1 2 2 3 3 3 3 3 3 4 5 8 10 11 11 11 11 12 12 12 13 13 13 13 13 12 12 11 11 11 10 10 11 11 11 10 10 10 10 10 10 10 9
0 1 1 1 1 1 1 1 2 2 3 3 3 2 3 4 6 8 10 11 11 11 11 11 11 12 12 12 12 12 12 12 11 11 10 10 10 10 10 10 10 10 10 10 10 10 10 10 10
0 1 1 1 1 2 1 1 1 2 3 3 3 2 3 4 6 9 10 11 11 11 11 11 11 11 11 12 12 12 11 11 11 11 10 10 10 10 10 10 10 10 10 10 10 10 10 9 9
-0 0 1 1 2 2 2 2 2 2 3 3 2 3 3 5 6 9 10 11 11 11 11 11 11 11 11 11 11 11 11 11 11 10 10 10 10 9 9 9 10 10 10 10 10 10 10 10 9
-0 0 1 1 2 2 2 2 3 3 3 2 3 3 4 5 6 8 10 10 11 11 10 10 10 11 11 11 11 11 11 10 10 10 10 9 9 9 9 9 10 11 11 11 11 11 11 10 10
0 1 1 1 2 2 3 3 4 4 3 3 3 3 4 5 6 8 9 10 11 11 10 10 10 10 10 10 11 11 10 10 10 9 9 9 9 9 9 10 11 11 12 12 12 12 12 11 11
1 1 1 2 2 3 3 3 4 4 4 4 4 4 4 5 6 7 9 10 10 10 10 11 11 10 10 10 10 10 10 10 9 9 9 9 9 10 10 11 12 12 12 12 12 12 12 12 12
2 2 2 2 3 3 3 3 3 4 4 4 4 5 5 5 6 7 8 9 10 10 10 10 10 10 10 10 10 10 10 9 9 8 8 9 10 10 11 12 12 12 12 12 12 13 13 12 12
3 3 3 3 3 3 3 2 2 3 4 5 5 5 5 5 6 7 8 9 9 10 10 10 10 10 10 10 10 10 9 9 8 8 8 9 10 10 11 12 12 12 12 12 13 13 13 13 13
3 3 3 3 3 3 3 2 1 2 4 5 6 6 6 6 6 6 7 8 9 9 9 10 10 10 9 9 9 9 8 8 7 7 8 9 9 10 11 12 12 13 13 13 13 13 13 13 14
3 3 3 3 3 3 3 2 2 3 5 5 6 6 6 6 6 6 7 8 8 8 8 9 9 9 9 9 8 8 7 6 6 7 7 8 9 10 11 12 12 13 13 14 14 14 14 14 14
3 3 2 2 2 2 2 2 2 3 5 5 6 6 6 6 6 6 7 7 8 8 8 8 8 8 8 8 7 6 6 5 5 6 7 8 9 10 11 12 13 13 14 14 15 15 15 15 15
3 2 2 1 1 1 2 3 3 4 5 5 5 5 6 6 6 6 6 7 7 7 7 7 7 7 7 7 6 5 4 4 4 5 6 7 9 10 12 12 13 14 15 15 16 16 17 17 17
3 2 2 1 1 1 2 3 3 4 5 5 5 5 6 6 6 6 6 6 6 6 6 6 6 6 6 5 5 4 4 4 5 6 7 8 10 11 12 13 14 15 15 16 16 17 17 17 18
3 3 2 2 1 1 2 2 3 4 5 5 5 5 6 6 6 6 6 6 6 6 6 5 5 5 5 5 4 4 4 5 6 7 8 9 11 12 13 14 15 16 16 16 17 17 17 18 18
3 3 2 2 1 1 2 2 3 4 5 5 5 6 6 6 7 7 7 7 6 6 5 5 5 5 5 4 4 5 5 6 7 8 10 11 12 13 14 15 16 16 16 16 17 17 17 18 18
3 3 2 2 2 2 2 3 4 4 4 5 6 6 7 7 7 7 7 7 7 6 5 5 5 4 4 4 5 6 6 7 8 9 11 12 13 14 15 15 16 16 16 17 17 17 17 17 17